Time,TemperatureF,DewpointF,PressureIn,WindDirection,WindDirectionDegrees,WindSpeedMPH,WindSpeedGustMPH,Humidity,HourlyPrecipIn,Conditions,Clouds,dailyrainin,SoftwareType,DateUTC
2013-01-22 00:14:00,21.9,18.6,30.33,NNW,332,0.0,0.0,87,0.00,,,0.00,VWS V14.01,2013-01-22 06:14:00,
2013-01-22 00:29:00,21.9,18.9,30.34,NNW,332,0.0,0.0,88,0.00,,,0.00,VWS V14.01,2013-01-22 06:29:00,
2013-01-22 00:44:00,21.9,18.9,30.34,NNW,331,0.0,0.0,88,0.00,,,0.00,VWS V14.01,2013-01-22 06:44:00,
2013-01-22 00:59:00,21.6,18.9,30.34,NNW,331,0.0,0.0,89,0.00,,,0.00,VWS V14.01,2013-01-22 06:59:00,
2013-01-22 01:14:00,21.6,19.1,30.35,NNW,332,0.0,0.0,90,0.00,,,0.00,VWS V14.01,2013-01-22 07:14:00,
2013-01-22 01:29:00,21.3,18.6,30.35,NNW,331,0.0,0.0,89,0.00,,,0.00,VWS V14.01,2013-01-22 07:29:00,
2013-01-22 01:44:00,21.3,18.8,30.35,NNW,332,0.0,0.0,90,0.00,,,0.00,VWS V14.01,2013-01-22 07:44:00,
2013-01-22 01:59:00,21.4,18.9,30.35,NNW,332,0.0,0.0,90,0.00,,,0.00,VWS V14.01,2013-01-22 07:59:00,
2013-01-22 02:14:00,21.1,18.6,30.35,NNW,332,0.0,0.0,90,0.00,,,0.00,VWS V14.01,2013-01-22 08:14:00,
2013-01-22 02:29:00,20.8,18.3,30.35,NNW,331,0.0,0.0,90,0.00,,,0.00,VWS V14.01,2013-01-22 08:29:00,
2013-01-22 02:44:00,21.0,18.8,30.36,NNW,331,0.0,0.0,91,0.00,,,0.00,VWS V14.01,2013-01-22 08:44:00,
2013-01-22 02:59:00,21.3,19.1,30.36,NNW,332,0.0,0.0,91,0.00,,,0.00,VWS V14.01,2013-01-22 08:59:00,
2013-01-22 03:14:00,22.2,19.7,30.35,NNW,331,0.0,0.0,90,0.00,,,0.00,VWS V14.01,2013-01-22 09:14:00,
2013-01-22 03:29:00,22.1,18.8,30.35,NNW,331,0.0,0.0,87,0.00,,,0.00,VWS V14.01,2013-01-22 09:29:00,
2013-01-22 03:44:00,21.8,18.3,30.35,NNW,331,0.0,0.0,86,0.00,,,0.00,VWS V14.01,2013-01-22 09:44:00,
2013-01-22 03:59:00,22.0,18.5,30.34,NNW,332,0.0,0.0,86,0.00,,,0.00,VWS V14.01,2013-01-22 09:59:00,
2013-01-22 04:14:00,21.9,18.1,30.35,NNW,331,0.0,0.0,85,0.00,,,0.00,VWS V14.01,2013-01-22 10:14:00,
2013-01-22 04:29:00,21.3,17.8,30.35,NNW,331,0.0,0.0,86,0.00,,,0.00,VWS V14.01,2013-01-22 10:29:00,
2013-01-22 04:44:00,20.7,17.5,30.35,NNW,331,0.0,0.0,87,0.00,,,0.00,VWS V14.01,2013-01-22 10:44:00,
2013-01-22 04:59:00,20.3,17.3,30.36,NNW,331,0.0,0.0,88,0.00,,,0.00,VWS V14.01,2013-01-22 10:59:00,
2013-01-22 05:14:00,20.4,17.7,30.36,NNW,332,0.0,0.0,89,0.00,,,0.00,VWS V14.01,2013-01-22 11:14:00,
2013-01-22 05:29:00,21.1,17.8,30.36,NE,43,0.0,0.0,87,0.00,,,0.00,VWS V14.01,2013-01-22 11:29:00,
2013-01-22 05:44:00,21.7,18.2,30.38,NE,43,0.0,0.0,86,0.00,,,0.00,VWS V14.01,2013-01-22 11:44:00,
2013-01-22 05:59:00,22.9,18.2,30.38,East,86,0.0,1.0,82,0.00,,,0.00,VWS V14.01,2013-01-22 11:59:00,
2013-01-22 06:14:00,23.8,18.0,30.39,ENE,75,1.0,2.0,78,0.00,,,0.00,VWS V14.01,2013-01-22 12:14:00,
2013-01-22 06:29:00,24.0,17.9,30.40,ENE,75,0.0,1.0,77,0.00,,,0.00,VWS V14.01,2013-01-22 12:29:00,
2013-01-22 06:44:00,24.0,18.1,30.40,ENE,70,0.0,0.0,78,0.00,,,0.00,VWS V14.01,2013-01-22 12:44:00,
2013-01-22 06:59:00,23.4,17.6,30.41,ENE,61,0.0,0.0,78,0.00,,,0.00,VWS V14.01,2013-01-22 12:59:00,
2013-01-22 07:14:00,23.7,18.1,30.41,East,79,0.0,3.0,79,0.00,,,0.00,VWS V14.01,2013-01-22 13:14:00,
2013-01-22 07:29:00,24.0,17.9,30.40,East,82,0.0,2.0,77,0.00,,,0.00,VWS V14.01,2013-01-22 13:29:00,
2013-01-22 07:44:00,24.9,18.4,30.41,East,79,0.0,4.0,76,0.00,,,0.00,VWS V14.01,2013-01-22 13:44:00,
2013-01-22 07:59:00,25.8,18.4,30.42,North,8,1.0,6.0,73,0.00,,,0.00,VWS V14.01,2013-01-22 13:59:00,
2013-01-22 08:14:00,25.8,18.0,30.42,ENE,72,0.0,6.0,72,0.00,,,0.00,VWS V14.01,2013-01-22 14:14:00,
2013-01-22 08:29:00,26.8,18.3,30.43,ENE,59,2.0,4.0,70,0.00,,,0.00,VWS V14.01,2013-01-22 14:29:00,
2013-01-22 08:44:00,27.3,18.1,30.43,NE,49,0.0,6.0,68,0.00,,,0.00,VWS V14.01,2013-01-22 14:44:00,
2013-01-22 08:59:00,28.1,18.2,30.44,ENE,72,2.0,7.0,66,0.00,,,0.00,VWS V14.01,2013-01-22 14:59:00,
2013-01-22 09:14:00,28.6,17.2,30.43,East,89,5.0,8.0,62,0.00,,,0.00,VWS V14.01,2013-01-22 15:14:00,
2013-01-22 09:29:00,29.2,17.1,30.44,ENE,60,2.0,10.0,60,0.00,,,0.00,VWS V14.01,2013-01-22 15:29:00,
2013-01-22 09:44:00,29.8,16.8,30.45,ENE,72,6.0,8.0,58,0.00,,,0.00,VWS V14.01,2013-01-22 15:44:00,
2013-01-22 09:59:00,30.2,16.4,30.45,East,79,2.0,8.0,56,0.00,,,0.00,VWS V14.01,2013-01-22 15:59:00,
2013-01-22 10:14:00,30.8,16.1,30.45,ESE,103,3.0,8.0,54,0.00,,,0.00,VWS V14.01,2013-01-22 16:14:00,
2013-01-22 10:29:00,32.1,16.9,30.45,East,84,1.0,5.0,53,0.00,,,0.00,VWS V14.01,2013-01-22 16:29:00,
2013-01-22 10:44:00,32.4,15.9,30.45,SSE,155,4.0,5.0,50,0.00,,,0.00,VWS V14.01,2013-01-22 16:44:00,
2013-01-22 10:59:00,33.3,16.2,30.45,SSW,194,1.0,5.0,49,0.00,,,0.00,VWS V14.01,2013-01-22 16:59:00,
2013-01-22 11:14:00,33.6,17.0,30.44,SSE,150,0.0,5.0,50,0.00,,,0.00,VWS V14.01,2013-01-22 17:14:00,
2013-01-22 11:29:00,34.3,16.7,30.43,ENE,72,2.0,6.0,48,0.00,,,0.00,VWS V14.01,2013-01-22 17:29:00,
2013-01-22 11:44:00,34.9,17.2,30.43,WSW,253,2.0,5.0,48,0.00,,,0.00,VWS V14.01,2013-01-22 17:44:00,
2013-01-22 11:59:00,35.9,17.1,30.42,ESE,120,3.0,6.0,46,0.00,,,0.00,VWS V14.01,2013-01-22 17:59:00,
2013-01-22 12:14:00,36.5,18.2,30.41,NE,54,2.0,6.0,47,0.00,,,0.00,VWS V14.01,2013-01-22 18:14:00,
2013-01-22 12:29:00,37.0,18.7,30.39,ENE,60,2.0,6.0,47,0.00,,,0.00,VWS V14.01,2013-01-22 18:29:00,
2013-01-22 12:44:00,37.5,18.1,30.39,SW,221,0.0,6.0,45,0.00,,,0.00,VWS V14.01,2013-01-22 18:44:00,
2013-01-22 12:59:00,38.1,18.1,30.39,NNE,25,2.0,4.0,44,0.00,,,0.00,VWS V14.01,2013-01-22 18:59:00,
2013-01-22 13:14:00,38.6,19.1,30.38,North,352,2.0,5.0,45,0.00,,,0.00,VWS V14.01,2013-01-22 19:14:00,
2013-01-22 13:29:00,39.0,18.4,30.38,West,271,0.0,4.0,43,0.00,,,0.00,VWS V14.01,2013-01-22 19:29:00,
2013-01-22 13:44:00,38.8,18.2,30.39,NNE,22,1.0,5.0,43,0.00,,,0.00,VWS V14.01,2013-01-22 19:44:00,
2013-01-22 13:59:00,38.9,17.8,30.38,ESE,104,0.0,4.0,42,0.00,,,0.00,VWS V14.01,2013-01-22 19:59:00,
2013-01-22 14:14:00,39.0,17.9,30.38,East,89,1.0,6.0,42,0.00,,,0.00,VWS V14.01,2013-01-22 20:14:00,
2013-01-22 14:29:00,38.9,18.3,30.38,NE,39,0.0,3.0,43,0.00,,,0.00,VWS V14.01,2013-01-22 20:29:00,
2013-01-22 14:44:00,38.7,17.6,30.38,ESE,109,0.0,5.0,42,0.00,,,0.00,VWS V14.01,2013-01-22 20:44:00,
2013-01-22 14:59:00,38.8,18.2,30.38,NNE,20,0.0,3.0,43,0.00,,,0.00,VWS V14.01,2013-01-22 20:59:00,
2013-01-22 15:14:00,38.8,17.7,30.38,East,88,0.0,3.0,42,0.00,,,0.00,VWS V14.01,2013-01-22 21:14:00,
2013-01-22 15:29:00,38.6,17.5,30.38,East,98,1.0,2.0,42,0.00,,,0.00,VWS V14.01,2013-01-22 21:29:00,
2013-01-22 15:44:00,38.5,18.0,30.38,WSW,246,0.0,2.0,43,0.00,,,0.00,VWS V14.01,2013-01-22 21:44:00,
2013-01-22 15:59:00,38.8,17.7,30.37,ENE,64,0.0,2.0,42,0.00,,,0.00,VWS V14.01,2013-01-22 21:59:00,
2013-01-22 16:14:00,38.7,18.7,30.37,East,79,1.0,3.0,44,0.00,,,0.00,VWS V14.01,2013-01-22 22:14:00,
2013-01-22 16:29:00,38.4,17.9,30.37,NE,47,1.0,5.0,43,0.00,,,0.00,VWS V14.01,2013-01-22 22:29:00,
2013-01-22 16:44:00,38.3,18.3,30.37,East,92,2.0,3.0,44,0.00,,,0.00,VWS V14.01,2013-01-22 22:44:00,
2013-01-22 16:59:00,38.1,18.1,30.37,NE,40,0.0,3.0,44,0.00,,,0.00,VWS V14.01,2013-01-22 22:59:00,
2013-01-22 17:14:00,38.1,18.1,30.36,East,87,0.0,3.0,44,0.00,,,0.00,VWS V14.01,2013-01-22 23:14:00,
2013-01-22 17:29:00,38.0,18.6,30.36,NNE,23,0.0,2.0,45,0.00,,,0.00,VWS V14.01,2013-01-22 23:29:00,
2013-01-22 17:44:00,37.6,18.2,30.37,NE,54,3.0,3.0,45,0.00,,,0.00,VWS V14.01,2013-01-22 23:44:00,
2013-01-22 17:59:00,37.6,18.7,30.36,NE,52,4.0,4.0,46,0.00,,,0.00,VWS V14.01,2013-01-22 23:59:00,
2013-01-22 18:14:00,37.5,18.6,30.36,NE,47,2.0,4.0,46,0.00,,,0.00,VWS V14.01,2013-01-23 00:14:00,
2013-01-22 18:29:00,37.3,18.9,30.36,ENE,75,2.0,7.0,47,0.00,,,0.00,VWS V14.01,2013-01-23 00:29:00,
2013-01-22 18:44:00,36.9,19.1,30.35,ENE,59,1.0,5.0,48,0.00,,,0.00,VWS V14.01,2013-01-23 00:44:00,
2013-01-22 18:59:00,36.7,18.9,30.34,East,92,2.0,4.0,48,0.00,,,0.00,VWS V14.01,2013-01-23 00:59:00,
2013-01-22 19:14:00,36.3,19.0,30.35,ENE,62,1.0,6.0,49,0.00,,,0.00,VWS V14.01,2013-01-23 01:14:00,
2013-01-22 19:29:00,36.1,19.3,30.35,ENE,77,1.0,5.0,50,0.00,,,0.00,VWS V14.01,2013-01-23 01:29:00,
2013-01-22 19:44:00,36.0,19.6,30.34,ENE,78,1.0,4.0,51,0.00,,,0.00,VWS V14.01,2013-01-23 01:44:00,
2013-01-22 19:59:00,35.9,19.5,30.33,ENE,72,0.0,5.0,51,0.00,,,0.00,VWS V14.01,2013-01-23 01:59:00,
2013-01-22 20:14:00,35.7,19.4,30.33,ENE,75,0.0,5.0,51,0.00,,,0.00,VWS V14.01,2013-01-23 02:14:00,
2013-01-22 20:29:00,35.6,19.3,30.33,ESE,105,2.0,6.0,51,0.00,,,0.00,VWS V14.01,2013-01-23 02:29:00,
2013-01-22 20:44:00,35.5,18.7,30.34,ENE,61,1.0,5.0,50,0.00,,,0.00,VWS V14.01,2013-01-23 02:44:00,
2013-01-22 20:59:00,35.4,19.5,30.34,East,80,1.0,4.0,52,0.00,,,0.00,VWS V14.01,2013-01-23 02:59:00,
2013-01-22 21:14:00,35.0,19.2,30.35,ENE,73,0.0,2.0,52,0.00,,,0.00,VWS V14.01,2013-01-23 03:14:00,
2013-01-22 21:29:00,34.7,18.9,30.35,ENE,65,1.0,3.0,52,0.00,,,0.00,VWS V14.01,2013-01-23 03:29:00,
2013-01-22 21:44:00,34.5,19.1,30.35,North,354,0.0,2.0,53,0.00,,,0.00,VWS V14.01,2013-01-23 03:44:00,
2013-01-22 21:59:00,34.4,19.0,30.35,ENE,76,1.0,1.0,53,0.00,,,0.00,VWS V14.01,2013-01-23 03:59:00,
2013-01-22 22:14:00,34.8,19.4,30.36,East,79,0.0,2.0,53,0.00,,,0.00,VWS V14.01,2013-01-23 04:14:00,
2013-01-22 22:29:00,34.8,19.4,30.36,ENE,78,0.0,0.0,53,0.00,,,0.00,VWS V14.01,2013-01-23 04:29:00,
2013-01-22 22:44:00,34.9,19.5,30.37,North,9,0.0,2.0,53,0.00,,,0.00,VWS V14.01,2013-01-23 04:44:00,
2013-01-22 22:59:00,34.9,19.5,30.37,North,6,0.0,2.0,53,0.00,,,0.00,VWS V14.01,2013-01-23 04:59:00,
2013-01-22 23:14:00,34.5,19.1,30.36,ENE,71,0.0,2.0,53,0.00,,,0.00,VWS V14.01,2013-01-23 05:14:00,
2013-01-22 23:29:00,34.4,19.0,30.35,East,84,0.0,3.0,53,0.00,,,0.00,VWS V14.01,2013-01-23 05:29:00,
2013-01-22 23:44:00,33.5,18.6,30.36,ENE,63,0.0,2.0,54,0.00,,,0.00,VWS V14.01,2013-01-23 05:44:00,
2013-01-22 23:59:00,32.4,18.5,30.36,ENE,64,0.0,1.0,56,0.00,,,0.00,VWS V14.01,2013-01-23 05:59:00,